Location: Flynn Junction
(40.1314°N, 99.5162°W)
Time: 21:18:28
(UTC+00:00)

ERS-2 - Pass Details

Date: 29 October 2020
Orbit: 493 x 497 km, 98.6° (Epoch: 30 November)

Event Time Altitude Azimuth Distance (km) Brightness Sun altitude
Rises 12:03:26 0° 198° (SSW) 2,565 5.6 -12.2°
Reaches altitude 10° 12:05:56 10° 217° (SW) 1,687 4.5 -11.8°
Maximum altitude 12:08:36 19° 264° (W) 1,219 3.5 -11.3°
Enters shadow 12:10:15 15° 298° (WNW) 1,419 3.8 -11.0°
